ASIASAT 3S

导读

ASIASAT 3S,又称亚洲卫星3S,是亚洲卫星公司(ASTC)运营的通信卫星,于1999年3月21日成功发射。该卫星定点于地球静止轨道,主要覆盖亚洲及周边区域,提供广播电视传输、通信干线等服务,为亚太地区广播电视信号覆盖、跨区域通信互联互通提供支撑,服役期间有力推动了区域信息传播和通信网络建设,是亚洲卫星系列中重要的在轨通信卫星节点。

基本信息
目录编号:
25657
目录名称:
ASIASAT 3S
国际标识:
1999-013A
轨道中心:
EARTH
卫星名称:
ASIASAT 3S
卫星全名:
--
卫星状态:
在轨 (已飞行9950 天)
发射日期:
1999-03-21 UTC
国别 :
(ASTC)
星等 :
--
轨道信息
数据来源 国际轨道数据 AOE轨道数据
星历时间 2026-06-16T04:01:43+0800
1天前
查看轨道信息
2026-06-16T03:00:00+0800
1天前
查看轨道信息
半长轴 42561.421km 42561.45km
偏心率 0.000425 0.0004269
轨道倾角 9.811° 9.812°
近地点辐角 27.690° 26.497°
升交点赤经 54.888° 54.890°
平近点角 148.155° 134.088°
近地点 36165.195km 36165.143km
远地点 36201.373km 36201.483km
周期 1456.411分钟 1456.412分钟
每日圈数 0.988732 0.988731
详细信息
使用方式:
暂无
2D轨道图
3D轨道图
轨道高度分析图
轨道倾角分析图
轨道综合分析图
查看轨道综合分析图